076  
NZUS93 KARX 241610  
HRRWXR  
 
CURRENT HOURLY OBSERVATIONS ACROSS  
MUCH OF THE UPPER MISSISSIPPI VALLEY  
NATIONAL WEATHER SERVICE LA CROSSE WI  
1100 AM CDT SUN JUN 24 2018  
 
   
..SOUTHEAST MINNESOTA
 
 
 
CITY SKY/WX TMP DP RH WIND PRES REMARKS  
ROCHESTER FAIR 75 65 70 S6 29.96R  
ROCHESTER/MAYO PTSUNNY 76 62 61 E7 29.95R  
WINONA FAIR 79 63 57 SE7 29.92F  
AUSTIN FAIR 75 63 64 S8 29.94S  
ALBERT LEA FAIR 73 57 56 S12 29.93R  
DODGE CENTER FAIR 75 61 60 SE9 29.95R  
PRESTON FAIR 76 61 59 SE3 29.97R  
OWATONNA FAIR 75 64 69 S8 29.94R  
FARIBAULT PTSUNNY 75 64 69 SE6 29.94R  

 
   
..ELSEWHERE IN MINNESOTA
 
 
 
CITY SKY/WX TMP DP RH WIND PRES REMARKS  
MINNEAPOLIS CLOUDY 76 65 68 S3 29.94R  
INTNL FALLS CLOUDY 60 56 86 E10 30.08R  
DULUTH CLOUDY 52 45 77 E21G30 30.07R  
RED WING FAIR 79 64 61 S6 29.92S  
REDWOOD FALLS CLOUDY 67 63 87 E12 29.88S  
MANKATO LGT RAIN 71 65 81 E8 29.93R  
WORTHINGTON SUNNY 75 66 73 SE7 29.88R  
FAIRMONT SUNNY 77 66 68 S16 29.89R  

 
   
..SOUTHWEST WISCONSIN
 
 
 
CITY SKY/WX TMP DP RH WIND PRES REMARKS  
LA CROSSE FAIR 81 64 56 CALM 29.92F  
PRAIRIE DU CHI FAIR 77 63 61 S5 29.94R  
BOSCOBEL FAIR 80 64 58 N3 29.94R  
LONE ROCK FAIR 80 66 62 CALM 29.93S  
PLATTEVILLE FAIR 76 67 72 CALM 29.96R  
FORT MC COY FAIR 77 62 59 CALM 29.94F  
CAMP DOUGLAS MOSUNNY 79 64 61 SE3 29.94S  
MAUSTON-NEW LI FAIR 79 65 62 CALM 29.94F  
VIROQUA FAIR 77 63 62 E3 29.95S  
WIS DELLS FAIR 77 62 59 E5 29.95F  

 
   
..ELSEWHERE IN WISCONSIN
 
 
 
CITY SKY/WX TMP DP RH WIND PRES REMARKS  
MILWAUKEE FAIR 72 62 71 NE12 29.98R  
MADISON FAIR 77 65 66 NE5 29.94F  
GREEN BAY FAIR 76 61 59 E8 29.96S  
EAU CLAIRE FAIR 77 61 57 VRB7 29.94R  
BLACK RVR FLS FAIR 81 59 48 CALM 29.93F  
MEDFORD FAIR 72 62 70 E7 29.98S  
WAUSAU FAIR 74 59 59 E7 29.96S  
WIS RAPIDS FAIR 78 61 55 SE7 29.97R  
MARSHFIELD FAIR 75 62 64 VRB5 29.96R  
RICE LAKE FAIR 72 57 58 CALM 29.99R  

 
   
..NORTHEAST IOWA
 
 
 
CITY SKY/WX TMP DP RH WIND PRES REMARKS  
WATERLOO FAIR 77 63 61 S9 29.93R  
DUBUQUE FAIR 77 60 55 SE3 29.96R  
DECORAH FAIR 77 63 61 SE6 29.95R  
MASON CITY PTSUNNY 71 68 90 SE12 29.94R  
CHARLES CITY FAIR 77 63 61 SE12 29.95R  
OELWEIN FAIR 77 64 65 S9 29.96R  

 
   
..ELSEWHERE IN IOWA
 
 
 
CITY SKY/WX TMP DP RH WIND PRES REMARKS  
DES MOINES CLOUDY 77 68 73 E5 29.90R  
IOWA CITY FAIR 76 66 71 S7 29.94S  
FORT DODGE CLOUDY 76 68 76 E14 29.91R  
MARSHALLTOWN CLOUDY 76 68 76 S10 29.93R  
CEDAR RAPIDS FAIR 76 65 68 SE6 29.94R  

 
   
..NORTHERN ILLINOIS
 
 
 
CITY SKY/WX TMP DP RH WIND PRES REMARKS  
CHICAGO-OHARE FAIR 78 61 55 N6 29.94R  
CHICAGO-MIDWAY FAIR 80 62 54 CALM 29.94R  
MOLINE FAIR 79 64 60 VRB3 29.94R  
ROCKFORD FAIR 79 60 52 E5 29.96R  
PEORIA FAIR 79 65 62 E7 29.93F  

 
 
NOTE: "FAIR" INDICATES FEW OR NO CLOUDS BELOW 12,000 FEET WITH NO  
SIGNIFICANT WEATHER AND/OR OBSTRUCTIONS TO VISIBILITY. WIND  
SPEEDS ARE IN MILES-PER-HOUR.  
 
 
CLICK HERE TO GO TO PREVIOUS BULLETINS.

The Nexlab WI Page
The Nexlab IA Page
The Nexlab MN Page Main Text Page